Regional Weather Roundup
Issued by NWS

Home | Current Version | Previous Version | Text Only | Print | Product List | Glossary On
Versions: 1 2 3 4 5 6 7 8 9 10 11 12 13 14 15 16 17 18 19 20 21 22 23 24 25 26 27 28 29 30 31 32 33 34 35 36 37 38 39 40 41 42 43 44 45 46 47 48 49 50
000
ASUS43 KLMK 242302
RWRKY
KENTUCKY REGIONAL WEATHER ROUNDUP
NATIONAL WEATHER SERVICE LOUISVILLE KY
600 PM EST TUE JAN 24 2017

NOTE "FAIR" INDICATES FEW OR NO CLOUDS BELOW 12,000 FEET
WITH NO SIGNIFICANT WEATHER AND/OR OBSTRUCTIONS TO VISIBILITY.

KYZ001>023-026-027-061>063-070>075-250000-
WESTERN AND SOUTH CENTRAL KENTUCKY

CITY           SKY/WX    TMP DP  RH WIND       PRES   REMARKS
PADUCAH        CLEAR     52  34  50 S7        29.78F
HENDERSON      CLOUDY    45  36  70 E8        29.82F
OWENSBORO      PTCLDY    44  36  73 E10       29.85F HAZE
HOPKINSVILLE   CLEAR     52  35  52 E5        29.83S
BOWLING GREEN  CLOUDY    48  35  60 E3        29.87F
GLASGOW        NOT AVBL
$$

KYZ024-025-028>034-038-045-046-053-250000-
NORTH CENTRAL KENTUCKY

CITY           SKY/WX    TMP DP  RH WIND       PRES   REMARKS
LOUISVILLE/SDF MOCLDY    47  32  56 W5        29.87S
LOUISVILLE/LOU PTCLDY    48  33  56 CALM      29.87S
FORT KNOX      NOT AVBL
$$

KYZ035>037-039>044-047>052-055>060-089>105-250000-
NORTHEAST KENTUCKY

CITY           SKY/WX    TMP DP  RH WIND       PRES   REMARKS
LEXINGTON      MOCLDY    43  34  70 CALM      29.89R
COVINGTON      CLOUDY    41  34  76 NW7       29.87R
FRANKFORT      PTCLDY    44  33  65 CALM      29.87R
$$

KYZ054-064>069-076>088-106>120-250000-
SOUTHEAST KENTUCKY

CITY           SKY/WX    TMP DP  RH WIND       PRES   REMARKS
JACKSON        CLOUDY    41  38  89 CALM      29.88R
LONDON         CLOUDY    42  34  73 SW3       29.90R
SOMERSET       CLOUDY    41  32  70 W3        29.92R
MIDDLESBORO    CLOUDY    43  36  77 CALM      29.91R
MONTICELLO     CLOUDY    41  35  79 W12       29.93R
$$




USA.gov is the U.S. government's official web portal to all federal, state and local government web resources and services.